Location: Quedlinburg
(51.7921°N, 11.1414°E)
Time: 12:58:32
(UTC+02:00)

RS-15 - Pass Details

Date: 18 March 2026
Orbit: 1893 x 2152 km, 64.8° (Epoch: 22 April)

Event Time Altitude Azimuth Distance (km) Brightness Sun altitude
Rises 18:52:49 0° 181° (S) 5,262 10.3 -5.1°
Reaches altitude 10° 18:56:18 10° 174° (S) 4,268 9.7 -5.7°
Maximum altitude 19:06:00 40° 110° (ESE) 2,607 8.3 -7.1°
Drops below altitude 10° 19:15:56 10° 46° (NE) 4,383 9.5 -8.7°
Sets 19:19:33 0° 40° (NE) 5,417 10.1 -9.2°
